{"data":{"norad_id":59041,"epoch":"2026-05-25T04:22:00.341760Z","epoch_age_seconds":59500,"freshness":"FRESH","line1":"1 59041U 24038U   26145.18194840  .00001009  00000+0  46210-4 0  9995","line2":"2 59041  43.0036 311.8436 0001622 266.0822  93.9845 15.27579082126496","mean_motion":15.27579082,"eccentricity":0.0001622,"inclination_deg":43.0036,"raan_deg":311.8436,"arg_perigee_deg":266.0822,"mean_anomaly_deg":93.9845,"bstar":4.621e-5,"rev_number":12649,"period_min":94.266805363338,"perigee_km":481.93896003264,"apogee_km":484.16472969391,"semimajor_km":6861.1888448633,"source":"CELESTRAK","updated_at":"2026-05-25T13:38:18.826117Z"}}